shenyang , China , ASIA

  • Wednesday
    November 21

    Sunny  Sunny

    36 °F  9 °F

    Southwest  Northwest

        

  • Thursday
    November 22

    Sunny  Sunny

    28 °F  14 °F

    North  Southeast

        

  • Friday
    November 23

    Cloudy  Overcast

    39 °F  27 °F

    South  Southeast

    3~4L    

  • Saturday
    November 24

    Cloudy  Sunny

    43 °F  21 °F

    Southwest  Southeast

        

  • Sunday
    November 25

    Sunny  Sunny

    43 °F  25 °F

    South  Southeast

        

  • Monday
    November 26

    Sunny  Cloudy

    48 °F  27 °F

    Southwest  Southwest

    3~4L    

  • Tuesday
    November 27

    Sunny  Cloudy

    41 °F  21 °F

    Southwest  No wind

        

Date   Weather Temperature Humidity Total_rain Visibility Wind
11:00 Sunny 28°F 46.5% 0mm 999.9km Southwest  1.7m/s
14:00 Sunny 35°F 43.9% 0mm 999.9km Southwest  2.7m/s
17:00 Sunny 32°F 56.5% 0mm 999.9km Southwest  1.5m/s
20:00 Sunny 20°F 57.4% 0mm 999.9km Southwest  1.0m/s
23:00 Sunny 16°F 68.1% 0mm 999.9km Northwest  0.6m/s
02:00 Sunny 10°F 68.8% 0mm 999.9km Northwest  1.3m/s
05:00 Sunny 9°F 69.4% 0mm 999.9km Northwest  1.1m/s
08:00 Sunny 9°F 72.6% 0mm 999.9km Northwest  1.8m/s
11:00 Sunny 23°F 34.6% 0mm 999.9km Northwest  2.5m/s
14:00 Sunny 28°F 45.5% 0mm 999.9km Northwest  2.5m/s
17:00 Sunny 26°F 50.6% 0mm 999.9km Northwest  1.4m/s
20:00 Sunny 20°F 58.9% 0mm 999.9km Northeast  0.3m/s
23:00 Sunny 17°F 70.7% 0mm 999.9km Southeast  -0.2m/s
02:00 Sunny 14°F 73.6% 0mm 999.9km Southeast  0.5m/s
05:00 Sunny 16°F 71.7% 0mm 999.9km Southeast  0.9m/s
08:00 Sunny 19°F 62.7% 0mm 999.9km Southeast  1.2m/s
11:00 Cloudy 36°F 38.2% 0mm 999.9km Southwest  2.5m/s
14:00 Cloudy 39°F 51.6% 0mm 999.9km Southwest  3.1m/s
17:00 Cloudy 36°F 59.7% 0mm 999.9km Southwest  1.6m/s
20:00 Cloudy 31°F 67% 0mm 999.9km Southwest  0.3m/s
23:00 Overcast 29°F 82.1% 0mm 999.9km Southeast  -0.1m/s
02:00 Overcast 28°F 87.8% 0mm 999.9km Southeast  1.0m/s
05:00 Overcast 27°F 90.6% 0mm 999.9km Southeast  0.9m/s
08:00 Overcast 31°F 88.1% 0mm 999.9km Southeast  0.9m/s
11:00 Cloudy 38°F 53.9% 0mm 999.9km Southwest  2.5m/s
14:00 Cloudy 42°F 63.9% 0mm 999.9km Southwest  2.2m/s
17:00 Cloudy 36°F 77.6% 0mm 999.9km Southwest  1.4m/s
20:00 Cloudy 30°F 81.4% 0mm 999.9km Southwest  1.1m/s
23:00 Sunny 27°F 82.2% 0mm 999.9km Southwest  1.0m/s
02:00 Sunny 26°F 78.2% 0mm 999.9km Northwest  0.9m/s
05:00 Sunny 22°F 66.9% 0mm 999.9km Northwest  0.6m/s
08:00 Sunny 22°F 59.9% 0mm 999.9km Northwest  0.8m/s
11:00 Sunny 37°F 43.6% 0mm 999.9km Northwest  1.6m/s
14:00 Sunny 42°F 53.3% 0mm 999.9km Southwest  2.0m/s
17:00 Sunny 38°F 62.7% 0mm 999.9km Southwest  0.8m/s
20:00 Sunny 30°F 65.2% 0mm 999.9km Southwest  0.1m/s
23:00 Sunny 25°F 67.6% 0mm 999.9km Southeast  0.6m/s
02:00 Sunny 25°F 73.8% 0mm 999.9km Southwest  0.9m/s
05:00 Sunny 25°F 79.5% 0mm 999.9km Southeast  1.1m/s
08:00 Sunny 34°F 79.7% 0mm 999.9km Southeast  1.2m/s
11:00 Sunny 44°F 53.6% 0mm 999.9km Southwest  2.7m/s
14:00 Sunny 48°F 66.8% 0mm 999.9km Southwest  3.2m/s
17:00 Sunny 44°F 72.1% 0mm 999.9km Southwest  1.9m/s
20:00 Sunny 36°F 77.4% 0mm 999.9km Southwest  1.4m/s
23:00 Cloudy 34°F 84.9% 0mm 999.9km Northwest  1.4m/s
02:00 Cloudy 27°F 86.6% 0mm 999.9km Southwest  1.2m/s
05:00 Cloudy 27°F 65.6% 0mm 999.9km Northwest  2.0m/s
08:00 Cloudy 28°F 53.8% 0mm 999.9km Northwest  1.6m/s
11:00 Sunny 36°F 46.6% 0mm 999.9km Northwest  2.2m/s
14:00 Sunny 41°F 55.8% 0mm 999.9km Northwest  3.5m/s
17:00 Sunny 34°F 56.7% 0mm 999.9km Southwest  1.5m/s
20:00 Sunny 28°F 61.4% 0mm 999.9km Northeast  1.4m/s
23:00 Sunny 27°F 66.9% 0mm 999.9km Southwest  1.4m/s
02:00 Sunny 26°F 74.8% 0mm 999.9km Southwest  2.3m/s
05:00 Cloudy 20°F 79.9% 0mm 999.9km Southwest  1.3m/s